FW3718 Weather Reports


time (UTC)temp
F
wind
direction
speed
knots
gust
knots
rain 1hr
in
rain 24hr
in
rain mn
in
humidity
%
barometer
mb
20260906104305 72 124 0.0 0.9 0.00 0.00 0.00 93 1014.2
20260906103805 72 126 0.0 0.9 0.00 0.00 0.00 93 1014.2
20260906103305 72 154 0.0 0.9 0.00 0.00 0.00 93 1014.1
20260906102804 72 216 0.9 0.9 0.00 0.00 0.00 93 1014.1
20260906101804 72 115 0.9 0.9 0.00 0.00 0.00 93 1014.0
20260906100805 72 47 0.9 0.9 0.00 0.00 0.00 93 1013.9
20260906100304 72 81 0.0 0.9 0.00 0.00 0.00 93 1013.9
20260906095805 72 37 0.0 0.9 0.00 0.00 0.00 93 1013.9
20260906095306 72 130 0.0 0.9 0.00 0.00 0.00 93 1013.9
20260906094805 72 145 0.0 0.9 0.00 0.00 0.00 93 1013.8
20260906094305 72 10 0.0 0.9 0.00 0.00 0.00 93 1013.8
20260906093804 72 125 0.0 0.9 0.00 0.00 0.00 93 1013.7
20260906093304 72 149 0.0 0.9 0.00 0.00 0.00 94 1013.7
20260906091804 72 259 0.0 0.9 0.00 0.00 0.00 93 1013.6
20260906090804 72 162 0.0 0.9 0.00 0.00 0.00 93 1013.6
20260906090304 72 234 0.0 0.9 0.00 0.00 0.00 93 1013.6
20260906085805 72 136 0.0 0.9 0.00 0.00 0.00 93 1013.5
20260906085307 72 103 0.0 0.9 0.00 0.00 0.00 93 1013.5
20260906084805 72 163 0.0 0.9 0.00 0.00 0.00 93 1013.4
20260906082804 72 48 0.0 0.9 0.00 0.00 0.00 93 1013.3
20260906082306 72 79 0.0 0.9 0.00 0.00 0.00 92 1013.3
20260906081804 72 150 0.0 0.9 0.00 0.00 0.00 92 1013.3
20260906081304 73 281 0.0 0.0 0.00 0.00 0.00 92 1013.4
20260906080804 73 51 0.0 0.9 0.00 0.00 0.00 92 1013.3
20260906080305 73 158 0.0 0.0 0.00 0.00 0.00 92 1013.3
20260906074304 73 126 0.0 0.9 0.00 0.00 0.00 92 1013.4
20260906073805 73 94 0.0 0.9 0.00 0.00 0.00 91 1013.5
20260906073304 73 126 0.9 0.9 0.00 0.00 0.00 91 1013.5
20260906072306 73 37 0.0 0.0 0.00 0.00 0.00 91 1013.5
20260906071804 73 245 0.0 0.9 0.00 0.00 0.00 91 1013.5
20260906071304 73 63 0.9 0.9 0.00 0.00 0.00 91 1013.6
20260906070304 74 67 0.0 0.9 0.00 0.00 0.00 91 1013.6
20260906065804 74 254 0.0 0.9 0.00 0.00 0.00 91 1013.7
20260906065306 74 170 0.0 0.0 0.00 0.00 0.00 90 1013.8
20260906063804 74 107 0.0 0.9 0.00 0.00 0.00 90 1013.9
20260906063304 74 13 0.0 0.0 0.00 0.00 0.00 90 1013.8
20260906062306 74 188 0.0 0.9 0.00 0.00 0.00 90 1013.8
20260906061304 74 141 0.0 0.9 0.00 0.00 0.00 89 1013.9
20260906060804 74 262 0.0 0.9 0.00 0.00 0.00 90 1013.9
20260906060304 74 279 0.0 0.9 0.00 0.00 0.00 89 1013.9
20260906055804 75 333 0.9 0.9 0.00 0.00 0.00 89 1014.0
20260906055306 75 113 0.0 0.9 0.00 0.00 0.00 89 1013.9
20260906054804 75 168 0.9 1.7 0.00 0.00 0.00 89 1014.0
20260906054306 75 303 0.9 1.7 0.00 0.00 0.00 89 1013.9
20260906053805 75 151 0.9 1.7 0.00 0.00 0.00 88 1014.0
20260906053304 75 237 0.9 1.7 0.00 0.00 0.00 88 1013.7
20260906052804 76 285 0.9 0.9 0.00 0.00 0.00 87 1014.0
20260906052305 76 37 0.9 1.7 0.00 0.00 0.00 87 1013.9
20260906051806 76 212 0.9 1.7 0.00 0.00 0.00 86 1013.9
20260906051307 76 151 0.0 0.9 0.00 0.00 0.00 86 1013.9
20260906050306 76 120 0.9 0.9 0.00 0.00 0.00 85 1013.9
20260906045806 77 125 0.9 0.9 0.00 0.00 0.00 85 1013.8
20260906045306 77 181 0.0 0.9 0.00 0.00 0.00 85 1013.7
20260906044806 77 192 0.9 0.9 0.00 0.00 0.00 84 1013.7
20260906043805 77 300 0.9 1.7 0.00 0.00 0.00 84 1013.5
20260906043305 77 271 0.9 1.7 0.00 0.00 0.00 84 1013.5
20260906042806 77 269 0.9 0.9 0.00 0.00 0.00 84 1013.4
20260906042307 77 263 0.9 1.7 0.00 0.00 0.00 84 1013.4
20260906041806 77 3 0.9 1.7 0.00 0.00 0.00 84 1013.5
20260906041305 77 306 0.9 1.7 0.00 0.00 0.00 83 1013.5
20260906040831 77 288 0.0 0.9 0.00 0.00 0.00 84 1013.5
20260906035805 78 285 0.9 0.9 0.00 0.00 0.00 82 1013.5
20260906035306 78 241 0.9 0.9 0.00 0.00 0.00 82 1013.6
20260906034806 78 335 0.0 1.7 0.00 0.00 0.00 82 1013.5
20260906034306 78 252 0.9 1.7 0.00 0.00 0.00 81 1013.4
20260906033806 78 228 0.9 0.9 0.00 0.00 0.00 81 1013.3
20260906033307 78 281 0.9 1.7 0.00 0.00 0.00 81 1013.2
20260906032805 78 256 0.9 0.9 0.00 0.00 0.00 80 1013.1
20260906032306 78 274 0.9 1.7 0.00 0.00 0.00 81 1013.2
20260906031805 78 229 0.9 1.7 0.00 0.00 0.00 80 1013.3
20260906031306 78 246 0.0 1.7 0.00 0.00 0.00 80 1013.4
20260906030806 78 149 0.0 1.7 0.00 0.00 0.00 80 1013.5
20260906030306 78 226 0.9 1.7 0.00 0.00 0.00 81 1013.4
20260906025306 77 249 0.9 1.7 0.00 0.00 0.00 82 1013.5
20260906024806 77 232 0.9 1.7 0.00 0.00 0.00 82 1013.5
20260906024306 77 234 0.9 1.7 0.00 0.00 0.00 83 1013.6
20260906023805 77 355 0.0 0.9 0.00 0.00 0.00 84 1013.6
20260906023307 77 187 0.9 1.7 0.00 0.00 0.00 84 1013.6
20260906022806 77 92 0.9 0.9 0.00 0.00 0.00 83 1013.5
20260906022307 77 52 0.9 0.9 0.00 0.00 0.00 83 1013.5
20260906021806 77 278 0.0 0.9 0.00 0.00 0.00 84 1013.4
20260906021305 77 134 0.0 0.9 0.00 0.00 0.00 83 1013.4
20260906020805 77 279 0.0 0.9 0.00 0.00 0.00 82 1013.2
20260906015806 77 253 0.0 1.7 0.00 0.00 0.00 83 1013.2
20260906015306 77 215 0.9 1.7 0.00 0.00 0.00 83 1013.1
20260906014806 77 141 0.9 0.9 0.00 0.00 0.00 82 1013.0
20260906014305 78 118 0.9 0.9 0.00 0.00 0.00 80 1012.8
20260906013805 78 46 0.9 0.9 0.00 0.00 0.00 80 1012.6
20260906013306 78 114 0.9 0.9 0.00 0.00 0.00 79 1012.5
20260906012806 78 125 0.0 0.0 0.00 0.00 0.00 79 1012.3
20260906012306 78 92 0.0 0.0 0.00 0.00 0.00 80 1012.4
20260906011806 78 90 0.0 0.9 0.00 0.00 0.00 80 1012.5
20260906011305 78 158 0.0 0.9 0.00 0.00 0.00 79 1012.5
20260906010806 78 296 0.0 0.9 0.00 0.00 0.00 80 1012.5
20260906010306 78 135 0.0 0.9 0.00 0.00 0.00 78 1012.4
20260906005306 79 227 0.0 0.9 0.00 0.00 0.00 77 1012.4
20260906004306 80 190 0.9 1.7 0.00 0.00 0.00 77 1012.3
20260906003305 80 34 0.9 1.7 0.00 0.00 0.00 75 1012.3
20260906002806 81 298 1.7 1.7 0.00 0.00 0.00 73 1012.5
20260906002306 81 129 0.9 0.9 0.00 0.00 0.00 74 1012.4
20260906001805 81 186 0.9 0.9 0.00 0.00 0.00 75 1012.5
20260906001306 81 310 0.0 0.9 0.00 0.00 0.00 76 1012.5
20260906000806 81 307 0.9 1.7 0.00 0.00 0.00 74 1012.6
20260906000306 81 300 0.9 1.7 0.00 0.00 0.00 74 1013.0
20260905235306 82 325 1.7 1.7 0.00 0.00 0.00 73 1013.3
20260905234805 82 125 0.9 1.7 0.00 0.00 0.00 73 1013.4
20260905233806 84 299 1.7 5.2 0.00 0.00 0.00 69 1013.4
20260905233306 84 115 0.9 1.7 0.00 0.00 0.00 70 1013.4
20260905232805 85 26 0.9 1.7 0.00 0.00 0.00 69 1013.3
20260905231805 85 102 0.9 1.7 0.00 0.00 0.00 66 1013.1
20260905231313 86 270 0.9 1.7 0.00 0.00 0.03 65 1013.1